Location: Владивосток
(43.1151°N, 131.8856°E)
Time: 15:30:23
(UTC+10:00)

SEEDS - Pass Details

Date: 04 May 2024
Orbit: 551 x 562 km, 97.7° (Epoch: 19 May)

Event Time Altitude Azimuth Distance (km) Brightness Sun altitude
Rises 04:16:43 0° 27° (NNE) 2,737 ? -17.0°
Reaches altitude 10° 04:19:18 10° 45° (NE) 1,837 ? -16.6°
Maximum altitude 04:22:18 20° 94° (E) 1,294 ? -16.2°
Drops below altitude 10° 04:25:17 10° 143° (SE) 1,828 ? -15.8°
Sets 04:27:50 0° 160° (SSE) 2,718 ? -15.4°
